Powrót do katalogu

ATLAS CENTAUR 2 DEB

AktywnyLEO
NORAD 2886·DEBRIS·🇺🇸 United States

Wystrzelony Nov 27, 1963 z Cape Canaveral Space Force Station

Loading…

Następne Przeloty (najbliższe 24 godziny)

TLE

ŚwieżeSource: Space-Track

Epoka: Sep 14, 2026, 07:02 UTC

1 02886U 63047K   26257.29325372  .00000152  00000-0  52164-4 0  9999
2 02886  29.8734 111.8373 0643217 213.1342 142.7312 13.30008052888086

Śledź ATLAS CENTAUR 2 DEB w czasie rzeczywistym z AllMySat

Download on the App Store